RH
2 2 3 2 2 2 5 8 10 12 14 15 16 17 17 16 14 12 10 11 13 14 15 16 18 21 21 22 23 24 24 24 23 22 22 23 23 20 21 18 11 13 17 17 15 14 13 13 14 13 13 14 15 16 16 18 15 20 35 39 33 34 33 27 34 38 41 46 46 44 41 46 47 38 35 37 37 37 38 39 41 42 41 41 39 41 40 38
3 3 2 2 4 6 9 11 12 14 16 17 17 16 15 14 13 12 13 15 16 16 16 15 16 18 19 20 21 22 24 24 22 21 23 24 22 20 21 17 10 11 15 16 13 12 13 13 13 13 12 14 16 16 16 17 16 26 41 41 33 34 30 25 29 32 36 42 43 43 40 42 43 36 34 41 43 40 42 41 40 41 39 38 37 38 38 38
3 3 3 5 7 9 11 12 14 15 16 16 15 15 15 15 16 17 19 20 20 21 22 20 17 16 16 17 17 17 20 22 21 22 23 23 23 21 21 16 8 10 15 14 12 13 14 14 14 12 12 16 17 15 16 18 18 22 33 39 35 30 31 28 28 31 34 38 41 41 39 39 37 33 36 43 44 43 44 42 40 41 39 38 36 36 38 38
5 5 6 8 10 11 12 13 15 14 15 15 15 16 17 18 19 20 20 20 21 24 25 23 21 19 18 16 16 15 14 20 23 23 23 23 24 20 19 15 7 11 15 13 14 14 15 14 13 12 14 21 19 15 19 20 18 21 29 38 32 28 36 34 32 34 33 35 38 38 38 40 37 36 38 41 47 48 42 38 40 40 38 37 35 36 38 36
7 8 8 10 11 12 13 14 14 14 15 16 17 18 19 20 21 21 21 20 21 23 24 23 22 22 21 19 19 17 18 28 27 21 23 23 23 20 16 11 6 11 13 15 16 14 16 14 12 15 21 27 26 24 26 20 18 25 28 29 25 29 37 35 34 35 34 35 35 36 39 41 37 36 38 39 48 47 37 37 38 37 37 36 36 37 37 34
10 10 11 12 12 13 13 13 13 14 16 18 19 20 21 21 21 21 21 20 20 21 21 22 22 23 25 23 21 20 24 32 27 21 23 22 23 19 13 8 6 10 13 15 15 15 18 14 14 20 26 32 34 32 30 21 20 28 28 23 26 31 35 35 34 34 34 34 36 37 37 38 38 40 39 37 41 39 35 38 36 36 37 35 36 36 35 35
13 12 12 12 12 12 12 12 14 16 18 19 20 20 20 20 20 21 21 21 19 19 20 21 20 21 26 27 23 20 24 27 24 23 22 21 24 18 11 8 7 11 13 14 15 18 17 14 18 24 31 36 35 32 29 23 22 30 32 27 30 33 34 34 34 35 34 33 36 36 35 37 39 42 40 37 38 37 37 37 36 37 35 35 37 36 36 36
15 14 13 13 13 14 15 16 18 19 20 20 19 19 19 19 19 19 20 21 20 20 21 21 21 21 26 29 26 23 25 26 25 24 22 22 23 19 12 8 10 13 14 17 20 20 16 16 21 24 35 38 31 29 26 25 28 33 36 31 32 34 33 34 34 34 34 35 36 36 37 37 39 40 39 39 38 37 38 37 37 36 34 36 37 37 38 34
18 18 17 17 17 17 18 18 19 19 19 18 18 18 18 18 18 18 19 21 21 22 22 22 23 24 26 26 25 25 26 26 25 24 23 23 22 21 14 8 13 16 16 21 21 20 19 20 22 21 32 34 29 33 28 29 33 31 32 32 33 34 32 33 33 33 33 34 35 36 38 38 37 38 40 39 37 38 38 37 38 35 36 38 37 39 37 34
18 19 18 19 18 18 18 18 18 18 17 17 17 17 17 18 18 18 19 20 21 20 21 20 22 23 22 22 23 26 26 25 26 26 25 23 21 20 14 9 15 18 18 19 19 21 21 21 21 20 27 30 30 34 29 30 34 30 31 33 32 32 32 31 31 32 33 33 33 37 40 38 36 40 45 41 36 39 38 37 38 37 39 38 38 40 36 35
18 18 18 18 17 18 17 17 17 17 17 17 17 17 16 17 18 19 19 21 21 21 21 20 20 21 21 22 23 25 25 24 26 26 24 22 20 18 13 11 14 16 16 18 22 24 23 22 21 22 27 28 30 32 28 29 32 30 32 35 34 31 30 32 32 31 33 34 34 36 40 39 38 45 47 39 38 40 39 39 39 39 41 39 39 39 36 36
17 17 17 17 17 17 17 17 17 17 17 17 17 16 16 17 17 18 20 20 21 21 21 20 20 21 22 22 22 24 24 25 27 25 24 22 19 17 15 14 13 14 15 19 27 27 25 23 19 22 25 26 32 35 32 30 31 31 35 42 42 38 34 31 31 31 31 35 34 35 48 53 47 47 43 38 40 41 39 40 40 40 40 39 40 38 37 37
16 17 17 17 17 17 16 16 16 16 16 16 16 15 15 16 16 17 18 19 21 21 23 23 22 21 21 21 21 23 23 25 26 25 24 21 20 18 16 16 15 16 17 19 26 26 24 21 18 22 24 28 35 35 31 28 32 35 35 44 49 44 42 32 27 32 29 33 34 31 55 70 53 42 40 39 42 41 41 41 41 42 41 42 39 38 40 38
16 16 16 16 16 16 16 16 15 15 15 15 16 15 15 16 17 18 17 18 19 21 23 24 25 24 20 20 21 21 22 25 25 26 26 22 21 21 19 19 19 20 19 19 23 22 21 19 19 24 26 28 31 33 34 34 41 46 41 54 67 59 48 37 27 32 33 32 31 30 60 80 55 41 41 39 42 42 42 42 42 43 42 43 39 39 42 40
16 16 15 16 15 16 16 16 16 16 15 15 15 15 15 15 17 17 17 19 20 22 22 20 22 23 20 19 20 20 21 23 24 26 26 25 24 23 23 22 20 20 21 23 25 24 24 23 24 30 31 28 32 40 48 48 48 52 53 60 77 72 50 39 29 31 39 35 31 38 68 80 54 41 41 39 43 43 41 43 43 44 44 44 41 41 42 42
15 15 14 14 14 15 15 15 17 16 16 16 16 16 15 16 17 17 18 18 19 20 19 19 21 21 21 20 19 20 20 21 24 26 26 26 26 24 25 24 22 23 24 27 28 29 29 29 32 35 36 39 47 57 65 68 57 56 67 59 60 67 51 47 42 35 42 41 37 43 61 71 52 41 42 39 42 42 42 44 44 45 46 45 42 42 43 43
15 14 14 14 14 13 13 14 15 15 16 16 16 17 15 16 17 17 18 18 19 19 17 19 19 19 21 19 19 20 20 21 22 24 26 27 27 26 26 25 25 26 27 28 28 29 28 30 35 33 38 48 60 77 78 74 67 64 75 60 49 61 57 60 58 44 47 50 50 49 54 64 54 41 41 40 42 42 43 44 45 47 47 46 43 42 44 44
14 13 13 13 13 13 12 13 13 14 15 16 17 18 17 17 17 17 18 17 18 20 19 18 18 23 24 20 22 22 20 22 21 24 27 26 26 26 25 24 25 25 25 25 24 26 26 27 35 39 46 51 62 88 80 61 63 64 64 52 46 55 58 68 68 54 54 58 60 56 56 64 54 43 41 39 41 42 43 44 46 49 47 47 44 43 45 44
12 13 13 13 13 12 12 11 10 11 13 16 18 18 19 17 15 15 15 14 15 21 24 20 20 27 27 21 21 20 20 21 20 22 24 26 26 23 24 24 23 22 24 31 31 28 28 34 47 53 57 57 57 71 66 55 56 56 61 62 57 58 59 65 65 55 49 54 64 64 63 66 56 48 43 39 41 42 44 46 48 50 48 49 46 44 46 45
12 12 12 13 12 11 11 10 9 9 10 14 18 20 21 21 21 19 17 16 17 21 23 22 21 22 23 22 20 18 19 20 21 23 23 25 24 20 24 23 22 25 31 40 40 31 35 53 64 57 51 52 51 55 59 61 56 52 64 71 66 64 62 59 59 55 44 47 68 71 65 65 59 53 44 38 41 42 44 47 50 50 49 49 48 46 46 46
10 9 10 11 10 11 11 10 10 9 8 9 14 18 19 23 26 25 22 21 19 19 19 20 20 20 21 23 21 18 17 18 20 23 24 23 21 21 26 29 34 41 40 36 37 36 42 59 63 50 44 46 49 60 64 61 59 55 59 63 63 60 59 57 55 54 45 45 68 72 57 55 56 54 45 39 41 43 44 48 51 50 49 50 49 47 47 47
5 6 8 8 9 11 10 11 11 10 9 7 9 12 15 19 20 19 20 22 21 19 18 18 18 20 21 21 22 20 16 19 21 21 24 22 21 25 29 36 45 48 46 42 46 53 53 58 56 43 46 52 54 66 68 61 63 61 57 60 63 58 59 63 58 55 52 50 67 74 56 47 51 52 47 41 41 43 45 48 51 50 49 51 51 49 47 48
4 5 6 7 10 10 10 12 10 10 9 7 7 9 14 18 19 18 17 19 22 20 16 17 18 19 20 21 22 20 18 24 27 23 24 24 24 29 31 37 46 48 50 55 57 60 57 53 49 40 45 55 54 59 68 69 67 64 65 62 61 60 55 60 64 59 56 54 58 65 61 56 56 54 47 40 38 41 45 50 51 51 51 51 52 52 49 49
4 5 6 8 9 8 11 10 9 11 7 6 8 7 11 17 22 21 16 18 20 20 18 15 18 21 22 23 23 23 24 26 29 26 25 28 27 32 34 37 52 55 53 57 54 56 56 43 42 45 51 59 56 55 62 68 66 63 68 59 53 61 55 56 68 60 61 67 56 53 65 73 66 57 52 45 41 43 45 50 50 51 53 51 52 53 51 51
4 4 6 8 7 9 11 9 10 9 5 7 7 7 10 12 16 15 21 36 25 14 21 18 16 20 21 24 24 24 27 25 29 28 26 29 29 35 38 37 50 56 54 59 55 53 50 36 43 57 60 62 58 55 55 59 64 61 60 55 47 56 57 59 68 61 67 74 57 52 68 79 71 58 56 52 49 50 49 49 51 53 56 53 53 54 52 52
4 4 5 6 7 9 9 8 9 5 7 8 5 10 10 9 15 9 26 62 43 13 20 21 18 21 21 24 23 25 31 30 28 26 23 27 28 33 41 42 44 44 47 56 52 51 47 38 48 58 57 58 56 55 50 55 70 60 51 58 56 54 52 55 60 56 63 62 52 57 61 68 72 61 57 57 55 58 56 54 53 55 58 54 54 55 54 54
5 4 4 4 5 6 6 6 5 5 8 7 7 11 8 11 17 7 28 62 43 14 17 21 19 20 23 24 23 29 36 31 25 23 22 25 24 24 39 54 51 43 47 52 45 45 46 45 52 55 56 59 53 50 48 52 64 55 49 60 59 52 49 54 56 54 62 60 59 69 56 57 74 68 60 59 57 62 67 69 62 56 59 56 55 56 54 55
5 4 4 4 4 4 5 5 5 7 8 9 11 10 11 15 10 18 49 49 23 16 19 19 19 18 21 22 21 28 32 29 28 28 24 23 23 21 34 51 50 45 47 46 44 43 44 47 53 56 58 57 48 45 49 53 54 50 55 60 55 55 58 61 59 57 64 60 67 80 60 53 72 69 61 56 54 63 71 77 69 57 59 58 56 57 54 54
6 5 6 4 5 5 4 5 6 9 9 10 10 9 14 12 5 35 62 33 12 22 21 19 19 17 20 20 20 23 24 28 30 29 24 22 24 25 33 40 39 43 41 40 49 46 38 41 47 55 55 50 52 53 53 52 50 51 55 58 60 63 63 65 63 61 62 62 73 78 56 52 67 67 60 52 54 65 72 76 69 56 58 60 55 55 56 55
7 8 7 5 6 5 5 7 7 10 12 10 11 12 13 18 35 59 49 17 16 23 18 21 20 20 29 30 27 25 25 27 26 28 25 22 24 23 29 31 34 50 53 51 59 50 41 42 42 47 45 42 52 53 48 47 46 49 55 64 72 68 63 65 65 63 65 74 82 70 49 52 65 68 65 59 59 63 66 74 70 58 57 60 55 54 55 54
8 8 7 7 7 6 7 7 7 11 12 12 13 12 15 34 61 60 25 12 29 29 23 29 28 32 44 42 31 29 34 28 22 32 36 33 32 29 34 38 45 69 70 60 60 55 56 55 42 38 38 40 51 49 46 50 47 48 56 63 65 65 70 72 73 74 71 75 80 67 52 54 62 67 68 69 72 68 65 70 69 63 60 58 55 53 54 53
8 8 8 8 7 7 8 7 9 10 10 15 13 14 35 52 48 38 26 23 31 33 31 31 34 41 51 53 40 35 42 33 27 38 45 51 53 48 50 52 59 70 60 48 51 54 57 53 43 42 37 36 49 51 51 55 54 54 59 65 70 74 76 76 80 78 65 61 65 60 52 56 63 61 59 69 78 71 62 59 58 60 60 58 56 52 52 53
7 8 8 8 8 8 8 8 10 9 11 16 11 20 53 57 30 26 40 34 22 29 34 33 44 52 54 52 41 39 44 36 32 34 37 52 63 60 57 54 57 55 44 44 50 55 60 56 53 52 38 30 42 50 49 50 54 56 56 64 78 80 75 80 82 73 65 61 58 54 51 59 64 58 58 67 64 53 48 46 50 57 59 59 56 51 52 53
7 8 8 8 8 7 7 9 9 11 15 16 19 36 46 36 25 28 38 38 31 37 41 40 49 53 45 39 35 40 39 31 37 41 40 48 58 63 59 51 53 53 54 55 46 48 57 50 48 47 34 34 44 45 43 49 57 60 57 60 70 70 70 81 79 71 74 72 64 57 50 50 54 57 60 57 45 42 46 48 52 58 60 59 56 52 51 52
7 8 8 7 8 7 8 10 8 12 15 11 27 53 44 24 29 38 40 44 43 43 45 47 52 49 42 42 43 41 32 26 39 49 49 50 52 57 55 51 54 56 61 56 40 46 51 39 41 43 32 35 44 42 47 57 60 63 67 67 69 67 66 73 77 72 71 75 78 71 57 49 51 58 59 51 48 50 49 51 56 59 59 59 57 54 51 51
7 8 7 8 8 7 10 12 10 12 13 13 28 45 42 30 34 43 46 45 42 43 43 45 50 48 43 46 48 42 32 28 37 43 45 49 51 52 55 56 51 51 59 55 45 49 49 44 52 50 37 38 41 39 44 48 50 61 69 64 59 62 63 66 73 73 67 74 79 67 61 61 58 61 62 59 63 63 57 55 56 57 57 57 57 53 50 52
7 8 7 7 8 8 11 11 12 11 5 16 36 39 37 38 39 49 52 43 41 47 44 35 32 35 37 38 39 41 38 34 37 40 38 40 42 43 55 58 44 42 51 51 50 49 45 55 65 53 41 42 38 37 43 42 45 59 64 57 54 63 71 69 70 76 80 84 77 63 66 68 61 66 70 66 65 63 63 62 55 54 57 58 58 51 50 54
8 9 6 7 9 9 11 11 13 11 3 26 54 45 39 47 43 45 49 43 45 51 47 36 26 28 34 34 33 38 45 43 41 42 38 37 38 36 49 55 45 45 47 45 53 53 46 57 65 53 44 46 42 39 46 46 47 53 50 47 54 63 71 71 69 74 80 85 82 73 72 68 65 73 68 60 60 55 58 66 64 61 58 58 56 50 50 54
9 10 7 9 9 6 11 12 10 8 11 40 62 43 40 56 47 40 43 44 49 46 37 34 31 31 34 35 33 36 43 39 36 40 35 33 37 38 44 47 42 46 48 48 53 53 50 51 55 57 51 46 44 45 53 53 48 51 51 53 63 65 65 65 66 72 77 83 88 84 75 65 70 82 68 52 54 53 56 69 69 61 57 59 56 49 50 52
10 10 8 9 11 9 9 7 6 19 32 47 56 46 44 55 46 38 40 44 47 40 31 34 35 33 35 38 35 36 42 38 35 40 36 35 40 40 47 51 50 51 50 48 51 56 59 50 49 66 63 51 51 52 57 59 54 57 61 61 64 65 66 65 62 69 76 82 90 90 81 64 58 67 60 48 52 55 57 66 65 57 57 61 55 48 50 51
10 14 11 6 11 12 11 12 17 38 55 52 52 53 50 50 46 39 37 39 41 36 35 39 39 36 39 41 36 38 45 43 41 42 39 39 37 35 45 53 58 60 49 47 55 58 60 52 50 64 62 58 64 57 49 54 59 64 64 64 68 73 77 73 68 73 76 76 83 88 85 69 52 52 53 49 52 53 52 57 59 54 57 61 54 49 51 52
10 19 14 6 11 8 11 28 34 45 62 58 50 50 46 46 45 39 37 39 38 37 38 42 46 48 49 46 41 45 50 44 41 41 38 39 39 43 50 48 56 65 52 47 57 56 55 55 56 59 54 52 56 46 40 49 57 59 56 59 70 77 77 73 75 80 79 76 78 82 83 71 56 55 53 47 47 45 43 49 53 53 55 57 53 50 51 53
10 17 11 7 10 5 13 36 44 50 62 56 45 43 44 46 43 40 44 45 42 43 43 45 48 44 44 47 47 46 44 38 39 40 39 44 50 53 52 46 55 68 59 50 55 58 56 52 53 61 62 61 59 50 47 50 50 49 51 57 61 68 77 80 78 76 79 82 79 82 88 73 57 56 48 40 42 40 39 43 47 51 53 53 52 51 52 55
10 12 11 9 8 9 24 40 47 57 60 48 43 45 45 44 42 47 55 50 45 45 48 53 52 41 41 50 51 46 40 33 34 39 40 43 49 51 47 46 55 63 58 53 53 51 49 47 50 56 51 51 60 61 56 57 56 55 60 65 63 67 76 77 73 70 76 82 79 85 92 67 46 49 44 39 42 39 38 41 43 49 53 52 52 51 51 56
11 10 8 9 5 10 24 31 41 63 67 55 48 47 47 43 37 45 50 44 40 43 45 47 46 45 48 51 51 50 47 35 29 40 45 42 52 61 51 44 55 59 53 55 55 51 53 54 50 47 40 34 39 44 43 49 59 61 62 62 63 67 67 66 74 79 80 81 78 83 81 52 34 40 40 39 43 41 40 41 43 50 53 52 51 50 53 57
12 15 16 17 9 8 19 18 24 46 61 57 43 37 47 49 40 41 43 39 38 40 43 41 39 45 50 53 54 53 55 50 37 40 49 46 54 68 59 47 52 54 50 52 52 54 65 66 56 55 55 44 36 37 37 40 46 49 54 59 66 73 70 69 79 84 82 83 78 72 67 53 44 42 39 39 41 43 44 43 47 53 53 52 52 52 56 58
14 22 30 30 17 13 23 22 20 29 41 45 36 32 46 51 43 38 39 43 41 40 47 48 43 44 43 47 51 46 51 58 44 37 45 51 57 63 60 55 53 52 53 52 51 56 61 61 61 65 62 53 49 46 42 44 45 42 48 58 71 80 76 67 69 72 74 74 67 62 63 62 52 42 39 41 41 43 45 45 51 56 54 54 55 55 58 59
18 20 23 28 26 28 32 28 26 26 28 35 38 40 48 50 43 37 35 40 40 40 46 44 43 50 51 48 45 42 47 50 43 40 41 47 55 54 55 62 58 56 57 52 52 57 53 52 60 64 60 58 59 54 48 52 55 51 50 54 64 78 79 67 62 64 65 63 57 54 58 59 51 43 42 43 42 43 45 47 53 56 56 57 57 56 59 60
17 17 17 21 24 29 31 28 28 25 24 34 43 45 48 45 39 39 39 38 39 44 43 35 41 56 59 55 47 42 41 33 27 36 40 41 49 48 47 55 59 61 63 60 57 50 48 62 70 65 60 54 50 53 59 64 64 58 55 55 59 71 77 70 63 61 61 62 57 53 58 61 52 47 47 42 40 44 45 48 52 55 58 58 58 59 59 60
12 15 17 18 16 19 21 22 26 29 29 32 34 38 48 51 44 41 39 32 34 44 40 33 48 59 55 57 53 41 39 33 23 30 37 38 48 54 47 44 53 62 62 63 65 50 41 60 73 63 53 47 49 60 64 64 67 60 53 58 63 67 72 71 68 66 67 69 65 63 72 71 53 45 47 42 41 46 48 50 54 56 60 60 59 60 61 61
10 11 15 19 21 21 20 19 23 30 37 38 35 33 41 52 49 39 35 33 34 41 40 36 47 54 49 55 59 50 47 44 35 35 36 34 41 48 41 35 47 63 64 61 63 54 44 59 76 66 48 45 58 65 57 56 68 67 61 66 70 71 74 74 73 74 71 66 66 68 69 60 44 42 47 44 44 49 50 53 57 58 61 61 60 61 61 61
8 9 10 18 27 25 21 25 27 26 31 39 43 40 38 44 45 32 26 33 33 32 38 43 45 48 50 52 54 51 46 40 36 39 41 40 40 41 38 38 44 59 71 69 63 63 59 59 65 60 53 60 67 63 57 53 53 54 57 64 66 66 72 73 70 75 70 58 58 61 51 40 38 46 51 49 49 52 53 55 58 61 61 61 62 62 61 60
Wind_Speed
10 10 10 9 9 9 11 12 12 12 11 10 10 9 8 8 8 8 7 6 6 4 2 1 2 4 6 8 11 13 14 17 18 19 24 25 23 17 9 6 6 10 12 12 13 15 16 14 12 11 10 10 11 10 10 12 14 13 7 5 4 2 1 2 4 9 11 7 9 12 15 15 9 11 12 10 13 13 11 11 9 8 10 12 13 9 10 18
10 10 9 9 10 11 12 13 12 12 11 11 10 10 10 10 10 10 9 7 5 3 3 3 3 2 0 4 7 10 11 16 19 20 21 19 20 16 6 4 6 8 11 12 13 15 13 11 11 10 12 15 14 13 13 14 16 10 3 5 4 1 3 8 11 15 14 12 15 14 15 14 10 11 9 6 7 11 10 10 10 10 12 14 16 13 12 18
10 10 10 10 11 12 13 13 13 12 12 11 11 11 12 11 11 10 8 7 7 6 6 5 4 3 4 3 3 4 5 13 23 24 18 15 17 14 6 5 7 8 12 14 14 14 13 13 11 11 16 20 17 18 17 12 12 9 6 6 2 5 9 14 18 17 19 19 17 12 12 12 10 11 8 8 7 9 7 8 9 10 13 16 19 17 14 20
11 11 11 12 12 12 12 12 12 12 12 12 12 12 12 11 10 9 8 9 9 10 12 12 10 7 4 5 7 8 4 6 20 24 17 14 15 12 7 7 9 11 15 15 15 15 15 14 12 13 19 17 18 23 17 10 9 6 6 5 5 12 10 12 20 19 21 21 18 16 15 14 11 11 8 8 6 6 5 6 7 9 13 17 19 16 16 21
12 12 12 12 12 12 11 11 11 12 12 12 12 12 12 11 10 10 10 10 11 12 14 17 15 14 12 9 5 5 5 1 14 22 17 15 14 9 8 9 11 14 17 17 16 14 13 15 14 16 17 10 13 16 12 12 16 9 7 10 9 13 11 12 20 20 20 20 19 17 12 10 11 12 10 8 6 1 4 8 9 10 12 16 15 15 18 23
12 12 12 11 11 11 11 11 11 11 11 12 12 12 12 11 11 11 10 9 9 9 10 11 11 13 15 17 15 7 6 3 11 20 18 16 14 9 9 10 14 17 17 15 13 10 10 13 14 15 13 9 11 10 8 10 14 9 6 12 14 15 15 15 20 18 18 19 15 12 9 11 12 9 8 8 5 1 5 9 12 11 11 14 13 15 21 22
12 11 11 11 11 10 11 11 11 11 12 12 12 11 11 11 11 11 10 9 6 5 5 4 4 6 8 12 17 19 17 9 10 17 18 17 14 8 10 12 15 16 15 11 12 12 11 14 19 20 13 9 11 12 18 20 18 15 6 9 15 18 19 18 19 17 17 18 15 13 13 13 12 7 4 4 3 5 7 10 10 9 10 13 14 18 21 21
13 13 12 12 12 12 12 12 12 12 12 11 11 10 11 10 10 9 9 8 8 8 7 6 4 4 4 4 14 23 22 14 13 17 18 16 13 8 10 12 14 13 12 12 15 17 16 20 20 18 11 7 12 14 21 25 17 11 7 11 16 18 21 20 19 18 17 17 16 14 13 12 12 9 4 2 4 6 9 11 9 9 10 13 18 20 19 19
15 14 14 13 13 13 13 12 12 11 10 10 9 10 10 10 9 8 9 9 11 13 12 10 6 6 6 4 11 18 19 17 15 18 20 17 12 8 10 13 13 10 11 13 15 15 14 16 12 13 15 12 15 11 11 12 6 6 12 15 17 18 21 20 19 18 17 16 16 13 10 11 10 6 4 2 4 7 8 10 10 10 11 15 21 19 16 18
16 15 15 14 13 13 11 11 10 9 9 8 8 8 9 11 12 10 11 14 17 19 19 17 13 14 16 17 20 15 15 19 17 19 22 20 14 8 10 13 12 9 10 10 11 11 11 15 18 24 23 15 12 9 7 9 10 16 21 20 20 19 18 17 17 17 16 14 14 11 7 7 6 3 0 1 3 6 7 9 10 12 13 17 20 17 15 16
15 14 13 12 11 10 9 8 7 7 7 7 8 7 8 11 13 13 13 14 16 17 18 19 19 23 26 32 30 17 16 20 19 21 23 22 17 11 11 11 10 8 8 10 13 14 16 22 24 19 14 15 16 17 17 19 23 26 26 19 15 15 14 14 14 14 11 8 11 11 7 4 3 2 2 1 3 4 5 8 10 14 15 17 19 15 14 16
13 12 11 10 10 9 8 7 6 6 7 8 9 9 9 8 8 12 15 17 18 17 17 18 21 22 25 34 33 21 20 21 17 20 23 22 19 14 13 11 10 8 8 15 19 17 20 18 13 9 14 20 15 12 17 23 26 24 20 12 6 7 7 9 10 10 7 5 10 11 4 2 1 2 2 1 3 3 4 8 11 15 16 18 16 14 16 18
12 12 11 11 11 11 10 9 8 9 10 11 10 10 11 10 10 10 11 13 14 14 13 14 18 22 23 27 27 21 22 22 16 16 21 23 22 18 16 12 11 11 11 17 16 13 14 10 11 20 24 19 10 11 19 22 20 13 8 7 5 5 2 4 5 6 6 5 10 6 2 4 3 5 2 0 1 3 3 7 11 14 18 19 14 14 18 20
12 13 14 15 17 17 16 14 12 10 10 12 12 11 11 12 13 12 10 9 7 7 7 8 7 13 22 22 21 22 22 20 17 16 17 19 24 24 21 18 18 18 17 19 17 14 15 14 21 27 22 20 20 21 19 12 8 5 4 4 4 4 3 5 4 5 3 5 10 5 1 5 5 6 4 0 0 4 3 6 10 12 19 19 13 15 20 20
14 17 21 23 24 24 23 22 21 17 13 11 11 12 11 12 12 12 12 10 9 8 9 10 6 6 15 16 16 22 22 20 20 18 15 14 19 22 22 23 25 27 26 26 24 21 20 22 26 25 21 25 25 16 8 3 2 4 3 3 3 3 2 6 3 4 1 4 9 5 1 4 4 8 7 1 1 3 2 5 9 11 17 17 12 16 20 18
20 22 24 23 22 22 21 22 25 26 24 19 15 11 8 9 10 11 11 11 12 10 9 9 7 9 12 10 15 23 24 22 20 15 13 12 13 15 17 19 21 22 21 21 18 16 16 21 25 22 17 14 11 7 5 4 3 3 3 1 2 3 1 4 3 1 3 2 5 4 2 2 4 9 9 3 2 3 2 4 8 11 15 15 12 16 19 18
20 19 17 14 14 14 14 13 14 16 20 23 25 22 16 11 7 8 9 11 13 14 16 10 5 10 15 15 18 23 26 24 18 12 11 11 10 9 10 14 17 15 14 13 9 9 11 13 13 11 10 6 4 5 5 5 3 4 3 3 0 3 3 1 3 5 6 2 3 3 3 4 5 11 10 5 4 3 1 2 7 9 15 14 12 17 17 17
14 12 9 8 10 12 13 11 10 8 8 11 18 25 28 25 18 13 11 9 8 11 17 17 10 7 11 20 21 19 24 23 15 12 12 14 15 12 9 9 9 7 9 11 9 10 11 10 7 3 7 7 5 6 5 2 1 2 0 2 1 1 2 2 3 3 5 3 2 2 3 6 6 10 11 9 6 5 3 1 5 9 15 14 12 16 15 16
10 7 4 6 8 11 12 14 16 14 10 6 6 11 19 26 29 29 28 24 20 13 8 17 18 6 4 20 20 13 21 22 14 12 12 15 19 20 17 14 13 13 11 9 11 16 12 8 8 4 5 6 4 4 4 5 4 3 3 5 4 1 2 3 3 2 2 4 3 4 4 5 5 8 11 12 9 6 5 1 4 9 14 13 12 12 12 16
6 4 2 5 7 9 9 13 17 17 16 12 6 4 4 10 16 23 35 38 33 22 12 15 19 12 10 21 21 11 16 22 20 20 16 12 15 19 20 18 24 26 16 6 8 15 15 8 6 4 3 5 5 3 3 5 2 3 4 4 4 2 2 4 3 3 2 3 5 5 4 7 6 7 12 15 10 9 7 1 4 9 14 12 10 11 13 17
3 1 2 5 5 6 6 7 13 16 17 15 13 13 8 6 7 11 24 30 27 25 23 20 17 18 17 20 23 13 14 25 27 27 22 14 13 13 14 14 17 16 11 7 7 9 13 9 3 3 3 5 5 5 3 2 3 4 4 3 2 1 4 4 2 3 2 3 4 3 5 8 7 6 12 15 11 10 8 1 3 7 12 10 9 13 15 16
4 3 3 4 4 5 4 3 6 12 13 11 12 17 17 17 17 17 19 18 18 21 24 23 19 19 16 16 22 18 17 23 24 27 26 24 24 17 17 19 12 7 7 6 5 5 9 6 5 5 3 5 5 6 7 5 5 5 2 3 2 2 3 4 3 2 2 2 4 4 6 9 8 6 10 16 13 10 8 3 2 7 11 11 13 15 15 16
5 4 4 4 4 3 3 2 4 8 10 8 8 12 13 15 17 20 19 13 13 18 23 24 23 23 19 16 19 21 25 21 19 24 24 22 24 20 20 19 10 6 7 6 6 6 5 3 10 9 5 8 7 9 9 6 5 4 4 4 1 3 2 2 5 4 1 1 2 3 5 8 7 3 6 14 14 10 8 6 1 7 11 14 16 15 14 16
6 4 3 3 3 2 2 3 5 7 8 7 7 8 8 9 12 14 13 9 8 14 19 20 21 24 22 18 16 17 23 20 18 23 22 17 13 10 12 11 6 4 5 7 9 8 4 5 11 8 6 8 6 9 9 6 4 3 3 5 1 3 1 3 4 4 4 3 2 3 5 5 4 2 4 8 8 9 10 8 5 8 11 15 17 14 13 15
6 4 3 1 1 1 2 3 4 6 7 5 5 5 6 7 6 6 6 6 5 10 14 13 15 20 22 20 12 8 13 17 19 21 21 20 13 5 5 5 5 4 3 6 7 6 4 9 8 5 5 7 7 6 6 3 2 4 1 3 3 3 3 4 5 4 5 5 2 3 4 5 5 3 5 4 2 6 7 7 7 10 11 14 16 13 12 13
6 3 2 1 2 2 1 2 4 5 5 4 4 4 5 4 3 3 2 5 4 7 10 10 10 14 20 21 11 3 6 10 16 20 19 21 18 8 4 6 5 3 1 3 4 3 5 12 10 6 4 6 7 3 2 2 4 3 1 5 5 3 1 2 4 4 3 3 4 3 3 4 5 4 7 4 2 5 4 5 8 10 11 13 15 13 11 14
6 3 1 0 1 2 1 2 3 5 4 3 3 2 3 2 3 4 2 6 5 5 8 9 8 10 14 20 16 6 1 7 10 20 20 16 18 16 9 5 4 4 3 2 3 1 4 11 11 8 7 7 6 4 3 2 5 2 1 6 5 3 2 2 5 4 2 2 4 2 3 2 5 5 7 3 3 5 5 6 10 11 11 12 14 13 11 14
7 5 3 2 1 1 2 2 3 4 5 5 4 3 3 2 3 3 4 5 4 5 5 6 7 10 10 16 23 14 6 8 6 15 20 10 13 18 13 6 2 4 6 3 4 2 2 6 8 8 8 5 3 4 5 1 2 4 4 6 4 4 4 4 6 3 1 3 4 5 2 1 5 6 5 1 2 6 7 6 10 12 11 11 13 13 12 14
9 7 5 4 3 3 3 4 3 5 7 7 6 4 2 2 2 2 5 3 2 4 5 5 6 11 11 11 21 20 14 14 8 11 18 12 9 10 8 6 3 4 10 8 6 3 1 2 4 6 5 3 4 7 6 3 1 5 4 4 3 3 4 4 5 3 3 4 2 6 2 2 5 6 4 2 2 6 7 6 10 13 12 10 13 14 13 13
10 8 7 5 4 4 3 3 3 5 7 8 7 5 3 3 3 5 6 1 1 4 6 6 4 10 13 8 13 18 12 12 12 12 17 19 17 14 8 4 6 3 6 9 5 1 0 1 1 3 1 5 7 7 4 4 4 3 2 4 5 4 4 3 2 3 4 3 5 7 1 3 3 6 3 3 4 6 5 6 8 12 12 9 14 14 12 12
11 9 8 7 5 5 3 3 2 5 4 5 6 4 5 4 4 6 4 1 1 5 6 5 4 7 10 5 5 12 8 9 14 12 12 14 18 20 11 3 7 5 4 7 5 4 5 4 2 2 3 6 4 3 4 1 5 6 4 5 5 4 4 4 5 4 4 3 6 6 2 2 2 6 5 5 6 6 6 6 8 11 11 8 14 13 11 11
10 9 8 8 7 6 3 2 2 3 3 2 5 3 3 5 6 3 1 3 2 3 3 2 4 5 6 5 4 7 5 6 12 9 5 4 7 11 8 2 3 3 4 5 3 5 5 2 4 4 4 7 4 2 6 6 7 8 5 5 5 3 4 4 4 3 1 4 6 4 1 1 4 8 7 6 7 8 10 11 12 12 10 9 13 12 11 11
10 9 9 9 8 7 4 2 2 2 1 2 3 2 5 6 4 1 3 3 0 1 1 2 4 5 4 6 5 6 4 3 7 9 4 3 4 3 4 5 3 0 1 2 2 5 4 4 7 4 3 8 7 3 3 4 5 5 3 4 4 3 4 4 4 3 2 5 7 4 1 1 4 7 7 7 8 10 12 13 14 13 10 10 13 12 12 10
11 11 10 10 10 9 7 4 4 5 4 3 2 5 9 6 1 1 2 2 1 2 2 1 4 6 5 4 2 4 4 2 3 7 6 4 6 4 4 8 8 3 2 3 2 2 2 4 5 2 2 6 4 2 2 1 2 2 1 4 4 3 3 0 2 1 3 5 8 6 1 2 5 5 6 8 8 10 11 12 12 12 11 11 14 12 11 9
12 11 10 11 12 10 10 7 5 5 4 4 6 7 7 3 2 1 1 3 1 2 3 2 3 5 4 3 2 2 2 2 2 5 5 4 3 3 3 5 7 4 2 3 1 0 1 3 5 1 1 1 1 2 3 4 1 3 1 5 2 2 4 2 3 5 3 4 5 3 1 4 6 5 4 4 6 10 12 12 12 13 12 12 15 13 12 9
11 10 10 13 13 11 11 9 6 4 2 5 9 6 3 2 2 2 2 1 0 1 3 3 4 5 4 4 3 4 3 2 3 4 3 3 2 1 2 3 4 4 3 3 0 1 1 4 5 2 2 0 3 3 2 2 1 2 3 2 2 3 6 2 3 3 1 2 4 3 3 6 5 4 5 3 6 10 10 11 13 13 11 12 15 14 11 9
9 10 11 13 14 11 10 9 7 4 4 9 9 3 2 1 1 3 0 1 1 1 2 2 2 3 2 3 4 6 4 2 3 3 2 2 1 1 2 2 2 3 2 2 0 0 2 3 6 1 1 2 2 1 2 1 2 3 2 2 2 2 4 3 1 4 4 0 4 4 4 6 4 4 6 6 7 9 8 8 10 11 12 12 13 12 9 7
8 10 13 13 12 10 8 8 7 5 10 13 7 2 2 1 1 1 1 0 1 0 4 3 1 1 1 0 2 6 4 3 3 3 2 1 1 1 0 2 2 3 3 2 1 0 2 2 6 2 2 2 0 1 3 3 1 3 1 3 2 2 1 1 1 1 2 2 5 5 5 5 2 3 6 7 8 9 8 6 7 10 12 12 11 10 8 8
7 9 14 15 10 8 8 7 4 5 11 10 3 1 2 2 1 0 1 1 1 2 3 1 1 1 1 2 1 4 3 2 2 3 2 1 1 0 2 0 2 3 4 1 1 1 1 1 4 4 1 1 2 2 0 3 2 2 2 2 1 2 2 1 1 2 1 2 4 4 5 5 5 6 5 7 9 8 8 6 6 11 13 11 10 10 9 10
7 7 12 14 10 7 7 5 4 7 9 5 4 2 1 2 2 1 1 0 1 1 1 1 2 2 1 2 2 1 1 1 1 2 1 0 0 0 1 1 2 4 4 1 1 1 1 2 3 6 4 1 1 1 3 3 1 1 2 2 2 1 1 0 0 2 3 2 2 3 5 6 6 5 6 8 8 7 8 7 8 13 13 10 11 12 11 11
8 6 9 14 11 7 5 7 10 10 7 3 3 2 1 3 3 2 3 2 0 1 0 1 2 2 2 1 1 1 1 2 1 1 0 0 1 1 1 1 2 3 3 1 2 2 1 1 2 4 5 2 3 3 3 4 4 4 2 2 2 1 2 2 3 2 2 3 4 1 4 9 7 3 5 7 7 7 9 9 11 15 13 11 12 12 11 9
12 6 8 12 10 7 6 8 10 7 4 4 4 3 2 3 3 2 3 2 1 1 1 1 1 1 2 1 1 2 1 1 1 1 1 2 1 2 2 1 1 1 1 1 1 0 1 2 0 4 4 4 5 3 1 0 2 4 2 2 3 3 4 4 2 4 1 1 3 2 2 8 7 5 7 7 5 9 12 12 14 15 12 11 12 11 9 8
16 11 10 10 6 6 8 7 7 6 4 4 4 5 4 3 2 2 2 2 2 1 2 1 1 2 0 1 1 2 1 0 1 1 1 2 1 2 3 2 1 1 0 1 0 1 1 2 1 5 5 3 4 3 2 3 2 1 2 2 4 2 3 5 5 3 1 3 1 1 3 7 7 6 9 7 8 13 16 16 15 13 12 11 10 9 7 7
14 15 17 15 6 2 5 4 2 3 2 2 4 4 4 3 3 2 1 1 1 1 1 0 0 2 0 0 2 1 1 0 1 1 0 2 2 2 3 2 1 0 0 1 1 2 1 0 1 3 6 7 6 6 5 5 2 2 3 2 3 4 6 4 2 3 1 4 4 4 4 8 7 4 5 7 11 14 18 20 15 12 13 12 8 8 7 7
8 9 16 20 12 7 7 6 8 6 2 3 4 2 2 3 3 2 2 2 1 1 2 1 1 1 1 1 2 1 1 1 1 1 2 1 2 1 2 2 2 1 1 1 1 1 0 1 1 2 2 3 4 5 5 4 3 2 1 1 1 4 7 4 2 3 2 4 5 5 6 10 12 9 8 9 10 12 18 21 17 12 11 9 6 7 7 7
6 4 8 15 17 17 16 11 10 8 4 4 4 2 2 2 0 1 2 1 2 2 2 1 2 1 1 2 2 2 1 1 1 1 0 2 3 1 1 2 2 1 2 2 1 1 1 1 2 5 5 5 6 8 5 2 4 6 5 3 3 4 5 5 4 3 5 2 2 7 9 12 17 16 12 13 11 11 15 19 16 10 7 6 6 7 8 7
6 3 4 6 11 15 16 13 11 8 4 4 3 0 1 1 1 0 1 1 1 1 1 1 1 1 0 1 2 1 2 1 1 0 1 3 3 1 1 1 1 0 1 2 1 2 3 2 3 5 7 8 8 10 8 3 6 10 8 5 5 5 5 7 5 6 3 1 6 8 5 6 15 17 15 15 13 10 15 18 14 9 8 8 8 9 9 8
8 4 5 4 3 4 6 8 8 9 6 3 3 1 2 2 0 1 1 0 1 1 1 1 2 3 4 3 2 0 2 2 1 2 1 2 2 2 1 1 1 1 2 2 1 3 4 2 4 3 7 10 10 11 10 5 7 9 8 8 6 6 9 10 11 8 5 3 11 11 7 9 16 18 16 16 16 15 18 18 13 11 12 11 10 11 11 10
10 7 8 7 4 3 4 4 5 8 7 4 3 1 3 4 3 3 2 1 1 1 1 0 4 4 5 4 4 1 2 1 2 3 1 1 2 1 1 2 1 1 1 1 0 1 3 2 4 2 7 11 9 10 8 5 5 7 8 9 9 9 12 13 12 8 7 11 16 16 16 17 18 17 16 21 24 22 20 17 15 15 15 11 11 13 13 12
12 9 7 6 7 6 5 3 3 4 4 3 2 1 4 6 5 3 2 3 0 1 2 3 5 4 4 5 5 3 5 4 3 4 3 1 2 2 2 2 2 1 1 1 0 1 2 3 3 2 5 10 8 6 4 4 5 9 10 8 7 8 9 10 9 5 6 11 15 13 13 16 15 14 16 21 22 18 16 18 17 15 14 12 13 13 14 13
17 14 9 4 4 5 5 4 3 3 3 3 1 2 2 4 6 4 3 3 3 3 4 4 4 3 2 2 3 5 6 5 5 6 4 3 4 3 2 2 3 3 1 1 0 1 2 2 3 5 4 8 6 6 9 8 4 7 12 10 6 6 6 6 6 6 7 8 9 7 7 10 10 8 11 16 16 14 16 18 16 16 16 15 14 15 14 13
19 17 13 7 3 5 7 5 4 4 2 2 1 2 2 2 4 4 1 2 3 3 4 4 5 3 1 2 5 6 4 4 5 7 6 7 8 6 4 4 3 4 3 3 1 0 2 1 2 3 1 7 6 7 10 10 6 4 7 6 6 6 5 5 4 7 9 6 4 5 8 10 10 10 11 14 14 13 16 17 16 19 20 17 16 15 14 14
Wind_Direction
99 103 109 113 115 116 113 108 102 98 93 88 83 78 73 71 73 80 90 99 108 101 86 103 117 112 87 79 68 55 45 29 21 27 34 25 10 1 360 33 85 119 112 102 102 102 96 86 77 83 93 83 62 49 45 50 76 84 71 66 77 85 77 145 159 145 137 140 148 140 123 119 121 112 104 85 68 64 62 56 51 39 41 32 16 5 338 343
106 109 113 113 114 112 105 99 93 89 84 82 79 78 79 81 83 85 86 81 75 44 347 310 291 240 56 70 65 59 50 28 25 33 32 17 7 9 11 49 87 127 116 102 105 101 89 70 75 101 97 73 57 65 69 62 71 73 86 80 63 102 72 91 122 136 138 148 149 139 131 125 135 133 106 93 67 48 47 28 25 24 28 27 15 8 347 352
101 103 107 108 108 102 97 92 87 83 80 80 81 82 83 84 86 86 82 69 54 43 39 30 6 315 284 278 317 3 23 25 27 27 24 13 9 19 43 75 85 120 119 107 103 88 74 75 97 113 89 70 59 72 70 55 64 65 87 85 72 108 84 90 105 125 142 146 132 115 117 111 123 132 111 118 85 38 31 3 360 2 9 15 9 8 359 358
93 98 102 101 100 96 93 89 84 82 80 82 83 84 85 84 84 78 67 58 60 66 68 67 56 36 347 285 273 275 276 19 23 19 19 16 13 26 65 93 94 112 118 109 97 86 85 95 111 104 84 70 60 68 55 41 78 63 80 113 134 111 88 94 101 112 130 129 114 104 103 94 98 107 105 117 79 15 9 8 353 352 6 9 5 13 6 355
91 94 96 96 95 92 90 85 81 81 83 86 87 87 85 80 74 65 56 59 73 80 77 74 67 59 50 35 4 270 229 10 12 17 23 20 20 40 80 103 105 111 112 105 94 86 97 110 113 94 77 60 55 64 44 59 93 70 70 105 107 108 100 108 111 112 119 117 111 105 104 105 98 85 73 85 97 345 356 25 18 8 7 6 8 17 5 353
89 91 92 93 92 90 86 83 82 83 87 89 89 86 79 72 65 59 54 60 77 83 79 76 65 52 47 43 41 55 111 99 3 18 26 19 22 56 96 107 110 115 112 103 91 81 108 120 108 90 76 60 57 69 56 67 105 98 69 88 89 102 107 114 116 119 122 116 111 105 115 118 100 79 60 70 93 354 7 30 23 9 5 15 21 14 2 356
87 89 91 91 89 88 85 85 87 88 91 89 85 76 69 64 59 56 54 59 71 76 66 47 22 19 31 39 45 60 73 61 17 25 30 20 19 66 103 112 116 121 116 97 90 97 121 118 102 95 88 77 71 78 79 75 95 106 96 90 93 99 105 116 117 120 123 113 111 112 117 113 102 104 80 54 40 15 34 37 17 12 21 27 17 1 358 358
84 86 87 87 87 87 87 89 91 91 90 84 73 63 59 56 54 54 56 66 75 72 61 42 18 21 36 29 45 55 52 39 36 37 33 21 18 66 106 123 122 119 107 91 103 112 116 111 105 96 81 89 104 104 94 79 68 80 108 108 100 100 106 116 117 118 119 115 120 117 117 123 115 108 87 36 36 46 53 37 23 33 28 11 359 350 354 2
80 82 83 84 85 86 89 89 89 86 79 68 57 53 54 55 57 58 62 77 84 75 66 61 54 56 72 77 60 55 40 32 40 36 34 30 28 68 113 127 119 115 107 103 115 120 116 111 110 110 106 107 109 112 104 86 53 86 113 112 104 104 110 117 118 122 124 127 133 122 126 138 128 101 57 25 51 60 54 36 36 38 12 359 355 347 358 8
79 80 81 82 83 84 84 81 78 69 57 47 45 51 63 70 68 70 85 91 89 81 74 73 78 76 73 68 68 62 32 33 38 34 36 36 40 77 112 116 114 115 113 115 124 122 124 120 114 112 109 102 92 83 82 104 126 120 113 111 113 116 121 126 127 133 135 139 139 127 132 138 141 165 43 3 75 65 46 43 43 26 2 360 358 352 8 13
79 79 79 77 75 73 67 62 54 46 44 45 52 61 78 85 75 76 93 98 93 87 79 77 75 70 63 58 62 59 33 35 36 37 40 40 47 73 91 98 111 118 117 114 115 115 120 123 120 111 94 92 88 76 87 114 126 124 118 112 119 128 134 140 141 147 141 147 150 133 127 104 82 142 200 284 79 53 38 53 37 14 359 1 3 4 14 10
78 74 71 67 63 58 53 51 47 52 60 65 70 72 77 90 88 86 94 96 92 86 77 70 67 64 58 54 56 51 42 43 40 40 43 46 51 66 79 84 95 106 124 114 110 119 126 129 127 116 108 109 100 81 104 125 125 124 122 112 112 111 130 156 152 162 152 157 160 132 96 3 339 171 202 258 81 32 47 58 25 12 2 359 9 16 13 4
72 67 65 63 62 60 59 59 65 76 76 74 77 77 77 83 93 104 106 101 97 91 80 68 63 61 60 57 52 46 46 50 54 48 45 54 61 66 75 83 91 100 115 109 107 122 130 135 120 115 117 113 110 121 128 130 123 119 109 100 106 65 11 196 161 174 162 178 179 141 6 291 251 196 190 189 85 1 49 57 20 16 7 360 10 14 5 358
70 72 74 76 76 73 70 68 71 78 75 72 76 82 86 86 91 101 105 108 113 105 81 61 56 56 63 65 51 45 49 54 62 58 48 60 67 66 68 77 89 97 98 92 89 96 108 119 114 106 101 105 118 125 124 123 114 110 89 63 98 84 300 244 199 172 149 216 194 142 310 251 241 203 200 189 20 332 45 56 16 13 10 5 10 5 359 355
83 87 88 86 82 76 73 71 71 73 74 72 77 83 89 93 94 94 97 105 103 102 92 74 76 69 65 64 47 44 49 53 55 53 52 63 68 68 71 76 85 91 87 84 83 84 93 101 100 93 94 111 120 119 103 78 60 85 94 357 5 98 248 267 233 166 128 240 194 149 333 253 239 201 202 207 278 312 51 46 10 9 8 6 6 2 360 353
98 99 96 89 78 73 73 75 75 75 75 75 77 81 91 102 98 95 102 106 96 91 90 82 82 71 58 52 44 40 40 42 45 48 53 60 64 70 77 81 86 88 85 87 84 77 81 84 86 85 93 110 111 101 79 52 14 20 90 75 348 99 113 292 298 3 354 290 203 197 202 264 238 197 199 208 249 301 64 31 9 13 7 6 1 358 358 349
105 107 101 84 66 60 61 70 74 72 73 73 73 72 76 85 90 100 103 103 97 75 63 66 98 76 53 40 33 26 27 34 41 51 52 52 57 65 82 90 87 84 86 94 90 73 71 71 80 80 64 56 46 78 76 40 349 323 37 90 151 135 126 267 288 342 354 347 228 223 202 245 225 189 190 199 231 276 292 3 12 15 8 6 356 353 353 347
113 114 102 70 47 38 42 55 60 59 65 75 76 71 70 72 73 83 92 100 93 64 52 45 54 84 41 22 14 10 25 33 42 55 57 60 67 75 91 104 102 97 88 81 61 57 66 58 67 79 37 31 26 56 80 106 180 263 319 111 79 111 138 199 236 311 5 22 313 297 257 262 235 196 195 201 217 250 254 334 10 6 8 3 347 350 349 349
123 123 94 46 33 33 48 63 59 55 56 77 105 76 68 68 69 68 68 70 64 60 47 33 43 88 10 9 8 15 34 38 49 58 63 69 76 85 90 93 92 81 72 61 31 34 52 51 46 50 15 5 358 62 137 192 191 193 181 144 142 149 232 235 232 234 67 38 304 260 247 257 241 215 206 203 210 231 235 279 357 356 7 357 340 349 349 353
136 135 49 27 29 38 65 73 57 51 52 58 84 101 86 67 63 56 58 62 61 64 67 48 49 59 39 20 21 40 48 48 56 54 55 70 86 89 81 76 71 62 53 52 32 33 56 71 41 32 326 313 297 294 227 232 204 128 96 95 134 140 282 265 246 240 113 65 276 246 252 259 242 232 213 197 199 217 220 274 356 358 4 348 335 351 350 351
117 102 21 25 36 47 76 79 51 44 48 53 64 78 93 89 84 71 66 66 62 60 59 58 57 49 42 29 29 46 60 55 56 53 51 64 89 83 55 57 63 50 31 55 75 49 60 71 16 341 309 317 311 320 346 344 37 70 92 91 87 78 277 266 232 256 98 85 278 313 341 284 256 245 214 189 191 218 213 201 2 3 358 339 341 352 348 345
77 68 48 44 54 54 60 67 33 28 35 46 64 74 81 87 92 88 81 76 62 53 49 52 57 48 45 35 32 44 57 48 40 42 48 60 72 69 56 61 65 41 12 39 74 36 45 44 325 317 347 26 20 14 37 47 46 40 69 101 52 318 277 298 330 317 90 113 278 352 357 294 273 256 212 188 194 218 204 176 20 5 351 347 358 352 340 341
82 75 69 63 58 41 20 8 4 8 20 38 68 80 81 85 89 83 80 83 65 47 39 41 42 37 36 30 28 43 54 42 16 23 33 49 62 62 63 66 65 52 31 40 64 48 53 345 314 320 7 44 29 19 38 48 46 36 53 90 278 311 27 315 307 308 282 197 272 348 339 295 297 302 208 200 205 208 191 187 313 351 348 357 2 345 332 341
90 84 86 86 46 15 342 337 344 352 5 31 65 90 101 96 93 87 81 88 70 40 34 33 31 30 26 17 17 38 52 44 21 21 23 31 48 53 62 70 71 61 50 69 77 80 99 310 319 335 27 58 43 18 34 47 21 356 78 106 249 293 286 245 281 316 332 340 328 353 339 302 317 355 212 217 212 198 194 207 266 319 338 357 358 337 326 339
79 86 111 131 330 327 315 313 324 346 4 33 53 75 117 129 117 101 82 82 61 18 20 22 21 23 16 8 11 47 56 45 30 22 22 30 33 38 55 57 61 43 43 77 77 83 50 344 354 26 35 58 62 22 24 69 37 331 288 162 203 228 243 290 327 3 18 351 314 52 16 304 312 314 236 236 205 205 213 225 265 303 327 351 352 331 318 332
58 76 127 184 265 244 265 313 335 350 8 41 39 56 106 141 154 147 104 69 33 342 3 8 3 14 13 8 8 95 77 34 29 28 30 34 31 46 56 14 31 33 44 106 80 89 11 1 26 54 37 48 49 15 337 95 83 357 285 175 169 152 135 342 16 48 54 303 281 86 83 284 312 303 245 233 188 220 237 245 262 291 317 343 344 323 313 327
33 29 44 270 256 243 280 332 358 5 25 36 24 78 112 103 137 152 107 52 17 337 0 360 359 13 16 18 27 95 103 338 18 29 29 35 38 58 69 8 21 5 288 161 64 23 347 3 18 32 40 41 26 350 292 85 86 340 225 149 149 148 142 112 85 88 199 270 313 9 105 275 300 272 248 217 169 227 257 265 264 279 304 331 336 321 311 319
16 10 6 7 10 357 10 28 26 35 54 49 44 99 131 96 138 152 96 68 350 338 2 352 10 22 25 36 44 66 50 4 23 17 16 32 44 56 63 36 51 354 343 100 110 291 312 10 15 30 33 18 352 285 269 113 85 269 208 154 169 172 147 112 92 97 263 38 342 313 40 344 282 273 276 263 194 257 273 267 262 274 294 318 330 323 307 311
16 13 13 20 34 39 43 48 60 78 80 74 66 82 127 114 146 101 78 91 317 338 359 351 3 6 10 40 42 44 45 38 41 12 22 48 50 54 70 38 35 15 19 67 127 221 261 46 39 66 51 331 267 270 261 160 286 269 180 125 87 92 90 88 96 93 22 45 283 278 12 57 285 283 291 320 268 262 269 267 262 273 286 310 331 322 297 305
23 23 27 35 47 53 60 57 89 120 100 77 62 65 92 95 103 66 46 53 319 339 339 358 355 345 359 27 26 21 33 36 27 23 35 49 50 57 89 58 22 46 32 43 80 195 314 58 24 85 67 274 260 281 275 197 278 302 117 65 46 47 46 62 77 86 58 15 262 254 164 97 299 284 242 226 232 219 240 277 273 273 278 307 335 319 290 304
31 37 46 54 59 59 72 70 99 158 140 61 38 56 94 65 64 86 60 298 313 346 341 356 353 351 11 40 11 360 8 19 16 23 32 36 39 40 48 25 5 33 26 12 20 347 356 26 345 285 303 306 277 306 333 326 358 20 35 25 36 14 15 28 360 39 66 322 260 243 234 134 232 274 258 241 241 215 219 254 267 272 275 309 334 316 287 305
36 45 53 56 61 58 62 77 92 175 201 3 6 23 107 49 32 85 321 315 313 352 355 321 328 350 7 29 21 351 351 6 9 22 41 41 40 35 45 54 340 23 15 349 350 351 348 332 318 297 317 357 26 19 350 355 19 31 24 30 50 8 6 16 342 8 54 274 249 232 283 231 229 257 261 248 247 236 230 242 256 267 273 303 329 315 286 299
32 40 42 41 46 41 43 81 87 124 213 340 357 40 83 74 43 275 294 340 147 288 321 265 307 332 2 29 11 341 360 359 356 14 34 71 63 38 52 45 6 52 26 347 7 5 340 301 336 348 345 12 42 67 356 332 360 21 21 47 75 64 27 354 317 333 324 280 280 288 219 252 287 275 248 224 229 239 246 254 258 263 270 294 321 312 281 289
31 35 34 33 37 33 42 76 98 95 78 59 87 69 63 73 135 258 294 285 234 320 329 278 321 347 30 55 328 321 27 351 340 20 13 29 41 5 354 5 4 29 86 57 60 36 20 309 331 21 332 358 34 119 161 197 318 313 174 109 98 111 106 284 266 283 293 285 298 321 24 250 293 282 227 209 224 247 256 260 256 254 261 288 313 301 270 281
34 34 34 34 36 38 49 72 107 98 84 80 73 65 71 105 216 168 241 257 304 338 317 332 36 34 17 2 310 337 42 324 355 44 19 22 56 7 346 334 343 12 68 65 36 23 93 263 261 225 300 349 90 223 170 116 14 279 126 83 48 176 141 156 216 209 250 302 296 304 282 250 262 272 253 226 250 262 262 258 250 249 260 291 306 286 261 280
35 35 42 39 37 47 56 62 80 76 111 106 71 57 105 172 206 171 203 262 30 306 312 342 46 56 356 326 339 353 10 337 360 46 26 38 92 13 353 283 312 6 63 101 83 335 59 276 276 351 330 172 133 228 218 108 18 335 44 37 259 179 132 116 275 257 21 357 281 295 305 294 311 317 310 323 292 281 278 262 246 249 269 298 300 275 257 281
41 42 48 42 40 51 54 49 59 71 96 92 79 85 179 181 167 163 183 359 207 187 85 52 23 51 352 325 330 327 346 355 353 42 41 16 66 5 326 289 308 2 34 98 155 220 120 281 286 277 258 255 162 233 303 84 130 82 52 236 220 90 94 106 314 335 26 39 277 311 298 296 333 323 311 330 306 290 290 263 245 254 274 295 294 265 250 282
51 52 48 40 37 43 45 46 57 89 89 78 77 117 143 135 177 199 279 210 206 71 81 99 188 159 180 136 315 307 340 14 347 29 53 356 37 86 296 306 329 7 2 23 57 227 109 315 293 248 196 270 262 55 339 325 144 114 159 215 137 74 357 23 71 351 6 315 294 305 293 281 243 244 295 312 296 291 292 271 254 261 274 291 285 252 249 284
50 51 39 28 27 34 40 45 49 82 78 74 99 139 102 139 137 330 239 208 185 81 81 144 174 112 166 162 213 287 336 47 13 36 76 83 349 44 109 357 308 347 351 12 123 248 112 90 290 283 242 305 3 55 288 294 323 36 23 331 26 127 175 233 136 157 168 288 293 310 318 295 234 222 253 275 282 288 288 283 272 271 279 289 275 253 262 285
53 58 33 21 25 29 26 35 45 66 71 82 144 144 96 146 127 47 79 181 219 105 78 209 124 92 203 197 194 270 360 79 110 78 70 71 332 286 96 112 287 325 337 346 83 333 16 118 261 297 329 341 320 246 191 182 165 67 31 356 330 348 111 147 215 157 141 168 248 307 310 283 259 226 222 255 274 273 272 274 276 282 286 282 270 266 271 284
60 69 23 17 28 25 29 54 49 56 77 87 101 85 49 122 126 75 64 55 104 96 100 166 134 146 168 171 222 198 16 9 66 90 300 343 50 305 263 184 253 311 338 5 18 353 4 124 239 297 331 309 250 241 186 164 165 155 152 188 191 148 88 67 315 292 108 154 191 202 288 275 268 227 214 242 261 276 291 288 282 292 292 277 275 274 271 288
58 62 6 11 26 34 64 67 36 37 84 77 67 83 96 118 115 78 58 47 56 42 14 103 126 115 138 149 196 158 103 16 36 75 218 222 190 199 209 184 238 293 24 85 348 325 138 107 257 279 276 253 261 271 117 98 171 154 166 180 153 138 120 120 230 267 330 279 210 152 248 267 265 234 219 232 274 312 321 306 286 289 290 280 280 275 268 292
57 52 15 6 18 48 74 70 26 26 69 82 84 87 87 102 103 86 60 40 38 11 19 33 52 53 106 220 113 129 147 141 184 193 220 227 237 208 199 199 238 266 38 175 203 18 104 96 14 292 289 303 316 320 360 15 51 141 250 187 153 164 137 144 173 179 277 274 241 118 247 269 274 240 223 249 315 328 328 318 295 283 292 295 281 266 267 289
60 51 31 20 7 46 78 102 100 59 57 87 78 68 67 73 80 101 109 48 40 104 84 75 352 67 98 141 92 147 205 66 207 222 208 214 235 235 203 195 219 231 128 188 159 13 323 164 47 339 335 343 348 349 346 350 17 213 242 206 157 122 103 113 126 90 335 241 177 153 243 267 272 245 242 291 323 325 323 326 313 291 301 306 278 261 274 285
60 50 35 31 39 74 81 110 135 128 145 117 79 57 70 61 57 80 94 90 104 131 116 112 131 101 83 67 61 24 33 53 257 318 17 264 248 235 193 202 219 181 107 180 174 59 240 207 126 84 31 335 320 317 312 307 294 256 193 159 153 127 128 142 111 92 244 236 165 171 245 277 288 297 307 312 323 323 321 327 326 311 310 307 278 275 286 287
57 42 23 28 46 69 77 86 105 112 140 134 83 37 83 71 15 90 71 72 92 108 118 126 147 111 41 53 45 338 317 51 28 26 349 256 271 294 174 208 225 185 69 80 123 100 87 263 211 173 183 211 236 252 259 302 301 283 271 237 202 172 149 129 115 170 202 213 224 229 242 275 291 299 311 314 320 322 317 323 331 331 327 316 303 303 300 296
60 40 359 15 42 61 68 65 75 98 142 145 101 120 128 82 333 60 26 305 125 131 127 107 170 174 136 93 63 317 274 359 38 340 230 236 264 303 176 199 250 240 82 85 96 97 84 309 260 197 219 235 241 258 273 299 273 263 265 249 202 184 159 150 190 213 170 39 280 249 226 272 286 293 303 307 312 315 310 315 327 342 343 330 320 314 304 296
61 60 37 41 43 52 59 50 61 87 104 114 113 149 139 104 164 191 211 257 119 188 181 9 287 233 191 161 110 109 292 345 332 249 244 248 280 344 360 264 159 138 106 92 78 107 111 267 253 199 249 256 251 264 271 264 259 250 243 242 226 190 177 194 222 216 160 224 259 263 283 284 280 288 295 295 296 298 300 306 322 341 340 330 319 311 302 297
57 63 47 56 81 96 90 66 65 79 80 86 99 130 152 153 191 222 196 109 16 284 160 212 280 252 198 161 117 146 248 336 310 275 237 215 263 298 323 297 175 142 81 74 337 113 122 253 245 216 288 282 268 272 261 226 260 272 245 231 223 206 200 214 233 219 193 237 256 269 283 280 274 275 279 285 291 293 297 309 326 336 333 322 313 310 304 302
44 46 39 63 77 67 63 47 37 64 58 53 81 180 171 162 191 224 179 147 226 270 173 209 252 229 173 145 130 193 222 187 206 245 200 169 290 238 206 235 165 140 339 339 300 138 148 268 262 97 331 301 291 305 294 217 242 276 276 255 224 222 228 229 238 226 211 248 260 267 278 278 274 268 269 282 293 298 307 319 328 332 329 319 313 312 308 304
37 35 28 51 57 24 19 12 23 56 37 16 68 182 193 188 196 186 159 188 213 207 193 199 203 173 112 122 188 234 243 206 215 240 221 215 248 223 207 223 156 136 205 247 238 140 160 281 334 58 9 292 292 340 321 301 276 274 284 279 232 211 227 224 219 199 194 233 267 285 282 273 280 291 289 294 303 310 315 320 325 327 326 320 313 311 309 306
34 32 26 35 44 14 13 1 12 46 19 322 341 190 217 220 190 156 142 255 236 214 209 185 162 145 104 259 239 241 250 248 256 264 256 246 246 242 248 249 185 151 171 177 160 197 143 118 350 44 354 273 291 326 314 319 349 318 277 247 201 206 233 247 248 217 203 212 263 274 264 269 295 318 312 307 312 315 316 318 321 323 322 316 309 308 307 308